TimeEDT,TemperatureF,Dew PointF,Humidity,Sea Level PressureIn,VisibilityMPH,Wind Direction,Wind SpeedMPH,Gust SpeedMPH,PrecipitationIn,Events,Conditions,WindDirDegrees,DateUTC
12:56 AM,73.0,72.0,96,30.01,4.0,Calm,Calm,-,N/A,,Overcast,0,2012-10-06 04:56:00
1:56 AM,73.0,72.0,96,30.00,4.0,Calm,Calm,-,N/A,,Overcast,0,2012-10-06 05:56:00
2:56 AM,73.0,72.0,96,29.98,5.0,Calm,Calm,-,N/A,,Overcast,0,2012-10-06 06:56:00
3:56 AM,72.0,71.1,97,29.96,5.0,Calm,Calm,-,N/A,,Mostly Cloudy,0,2012-10-06 07:56:00
4:56 AM,72.0,71.1,97,29.97,6.0,Calm,Calm,-,N/A,,Scattered Clouds,0,2012-10-06 08:56:00
5:56 AM,72.0,70.0,93,29.97,6.0,Calm,Calm,-,N/A,,Scattered Clouds,0,2012-10-06 09:56:00
6:56 AM,72.0,71.1,97,29.98,6.0,North,4.6,-,N/A,,Mostly Cloudy,360,2012-10-06 10:56:00
7:56 AM,72.0,71.1,97,29.98,5.0,Calm,Calm,-,N/A,,Mostly Cloudy,0,2012-10-06 11:56:00
8:56 AM,75.0,73.0,94,29.99,7.0,North,3.5,-,N/A,,Mostly Cloudy,360,2012-10-06 12:56:00
9:56 AM,80.1,75.0,85,29.99,10.0,North,4.6,-,N/A,,Mostly Cloudy,350,2012-10-06 13:56:00
10:56 AM,80.1,73.9,81,30.00,10.0,North,4.6,-,N/A,,Mostly Cloudy,360,2012-10-06 14:56:00
11:56 AM,82.0,73.0,74,29.99,10.0,North,3.5,-,N/A,,Mostly Cloudy,360,2012-10-06 15:56:00
12:56 PM,84.0,72.0,67,29.96,10.0,NNW,4.6,-,N/A,,Mostly Cloudy,340,2012-10-06 16:56:00
1:56 PM,84.0,72.0,67,29.94,10.0,NE,9.2,-,N/A,,Mostly Cloudy,50,2012-10-06 17:56:00
2:56 PM,80.1,73.9,81,29.92,10.0,East,11.5,-,N/A,,Mostly Cloudy,80,2012-10-06 18:56:00
3:56 PM,80.1,75.0,85,29.92,10.0,East,8.1,-,0.00,Rain,Light Rain,100,2012-10-06 19:56:00
4:12 PM,78.8,75.2,89,29.92,10.0,East,9.2,-,0.00,Rain,Light Rain,80,2012-10-06 20:12:00
4:44 PM,80.6,75.2,84,29.91,4.0,Calm,Calm,-,0.10,Rain,Light Rain,0,2012-10-06 20:44:00
4:56 PM,81.0,75.9,85,29.91,10.0,Calm,Calm,-,0.10,,Mostly Cloudy,0,2012-10-06 20:56:00
5:56 PM,82.0,73.9,76,29.91,10.0,East,6.9,-,N/A,,Scattered Clouds,90,2012-10-06 21:56:00
6:56 PM,78.1,73.0,84,29.91,10.0,SE,6.9,-,N/A,,Scattered Clouds,130,2012-10-06 22:56:00
7:56 PM,77.0,73.0,88,29.93,10.0,East,4.6,-,N/A,,Scattered Clouds,90,2012-10-06 23:56:00
8:56 PM,75.0,72.0,90,29.95,10.0,Calm,Calm,-,N/A,,Scattered Clouds,0,2012-10-07 00:56:00
9:56 PM,73.0,72.0,96,29.97,10.0,NE,4.6,-,N/A,,Scattered Clouds,40,2012-10-07 01:56:00
10:49 PM,73.4,71.6,94,29.97,10.0,Calm,Calm,-,N/A,,Mostly Cloudy,0,2012-10-07 02:49:00
10:56 PM,73.9,73.0,97,29.97,10.0,South,4.6,-,N/A,,Mostly Cloudy,190,2012-10-07 02:56:00
11:38 PM,73.4,71.6,94,29.96,10.0,Calm,Calm,-,N/A,,Scattered Clouds,0,2012-10-07 03:38:00
11:56 PM,73.0,72.0,96,29.96,10.0,Calm,Calm,-,N/A,,Scattered Clouds,0,2012-10-07 03:56:00